1326931225177,2.40732
1326931285177,2.41282
1326931345177,2.39539
1326931405177,2.39324
1326931465177,2.39015
1326931525177,2.40286
1326931585177,2.43557
1326931645177,2.42164
1326931705177,2.39102
1326931765177,2.39338
1326931825177,2.40674
1326931885177,2.37977
1326931945177,2.38616
1326932005177,2.38616
1326932065177,2.39584
1326932125177,2.38399
1326932185177,2.39273
1326932245177,2.38075
1326932305177,2.35051
1326932365177,2.37314
1326932425177,2.36993
1326932485177,2.35820
1326932545177,2.36438
1326932605177,2.38497
1326932665177,2.38377
1326932725177,2.35424
1326932785177,2.40117
1326932845177,2.36808
1326932905177,2.39794
1326932965177,2.35715
1326933025177,2.37444
1326933085177,2.36719
1326933145177,2.37131
1326933205177,2.37035
1326933265177,2.38185
1326933325177,2.35206
1326933385177,2.37373
1326933445177,2.37050
1326933505177,2.36109
1326933565177,2.36018
1326933625177,2.37024
1326933685177,2.36897
1326933745177,2.35812
1326933805177,2.35921
1326933865177,2.37006
1326933925177,2.35707
1326933985177,2.36125
1326934045177,2.35363
1326934105177,2.35658
1326934165177,2.35321
1326934225177,2.35764
1326934285177,2.37149
1326934345177,2.36330
1326934405177,2.34827
1326934465177,2.35090
1326934525177,2.36398
1326934585177,2.34600
1326934645177,2.34733
1326934705177,2.35255
1326934765177,2.34651
1326934825187,2.34303
1326934885187,2.34473
1326934945187,2.33195
1326935005187,2.33323
1326935065187,2.34613
1326935125187,2.35999
1326935185187,2.32593
1326935245187,2.33409
1326935305187,2.33827
1326935365187,2.34664
1326935425187,2.35785
1326935485187,2.34934
1326935545187,2.33105
1326935605187,2.33170
1326935665187,2.34367
1326935725187,2.32347
1326935785187,2.33509
1326935845187,2.33843
1326935905187,2.33207
1326935965187,2.32511
1326936025187,2.34843
1326936085187,2.32949
1326936145187,2.32460
1326936205187,2.31205
1326936265187,2.31336
1326936325187,2.40006
1326936385187,2.33370
1326936445187,2.33762
1326936505187,2.34057
1326936565187,2.31525
1326936625187,2.32960
1326936685187,2.33149
1326936745187,2.33525
1326936805187,2.32350
1326936865187,2.32853
1326936925187,2.33891
1326936985187,2.33082
1326937045187,2.33050
1326937105187,2.34094
1326937165187,2.32876
1326937225187,2.32266
1326937285187,2.32508
1326937345187,2.33833
1326937405187,2.30909
1326937465187,2.33499
1326937525187,2.31256
1326937585187,2.29632
1326937645187,2.33073
1326937705187,2.32906
1326937765187,2.33440
1326937825187,2.34847
1326937885187,2.32009
1326937945187,2.33605
1326938005187,2.30824
1326938065187,2.34210
1326938125187,2.32715
1326938185187,2.32941
1326938245187,2.32282
1326938305187,2.31492
1326938365187,2.30913
1326938425198,2.32429
1326938485198,2.32084
1326938545198,2.33605
1326938605198,2.31211
1326938665198,2.33130
1326938725198,2.31453
1326938785198,2.32608
1326938845198,2.32119
1326938905198,2.33945
1326938965198,2.32735
1326939025198,2.30649
1326939085198,2.32996
1326939145198,2.31683
1326939205198,2.32259
1326939265198,2.34109
1326939325198,2.32159
1326939385198,2.32420
1326939445198,2.34134
1326939505198,2.34356
1326939565198,2.31943
1326939625198,2.33918
1326939685198,2.33531
1326939745198,2.32388
1326939805198,2.34219
1326939865198,2.34435
1326939925198,2.34163
1326939985198,2.32977
1326940045198,2.34091
1326940105198,2.34137
1326940165198,2.35630
1326940225198,2.34126
1326940285198,2.34260
1326940345198,2.32243
1326940405198,2.34148
1326940465198,2.32208
1326940525198,2.33009
1326940585198,2.32773
1326940645198,2.33645
1326940705198,2.33504
1326940765198,2.33830
1326940825198,2.32328
1326940885198,2.34004
1326940945198,2.34566
1326941005198,2.34385
1326941065198,2.33605
1326941125198,2.33495
1326941185198,2.31319
1326941245198,2.31982
1326941305198,2.34677
1326941365198,2.32026
1326941425198,2.33478
1326941485198,2.34336
1326941545198,2.32260
1326941605198,2.33096
1326941665198,2.32678
1326941725198,2.31813
1326941785198,2.32940
1326941845198,2.33024
1326941905198,2.33657
1326941965198,2.31621
1326942025208,2.36306
1326942085208,2.31946
1326942145208,2.30416
1326942205208,2.33560
1326942265208,2.31828
1326942325208,2.31606
1326942385208,2.33105
1326942445208,2.32372
1326942505208,2.31975
1326942565208,2.32870
1326942625208,2.32240
1326942685208,2.31960
1326942745208,2.33236
1326942805208,2.32738
1326942865208,2.33281
1326942925208,2.32259
1326942985208,2.32650
1326943045208,2.31746
1326943105208,2.33347
1326943165208,2.31628
1326943225208,2.32520
1326943285208,2.32996
1326943345208,2.31450
1326943405208,2.31474
1326943465208,2.32050
1326943525208,2.33465
1326943585208,2.30880
1326943645208,2.31970
1326943705208,2.33098
1326943765208,2.32582
1326943825208,2.32449
1326943885208,2.31117
1326943945208,2.34105
1326944005208,2.32754
1326944065208,2.32618
1326944125208,2.30412
1326944185208,2.32404
1326944245208,2.32311
1326944305208,2.31691
1326944365208,2.13670
1326944425208,2.32246
1326944485208,2.32415
1326944545208,2.32447
1326944605208,2.30571
1326944665208,2.31933
1326944725208,2.33354
1326944785208,2.31097
1326944845208,2.32160
1326944905208,2.35835
1326944965208,2.31837
1326945025208,2.31789
1326945085208,2.31942
1326945145208,2.32204
1326945205208,2.32168
1326945265208,2.33764
1326945325208,2.33344
1326945385208,2.34552
1326945445208,2.33739
1326945505208,2.32715
1326945565208,2.32189
1326945625219,2.31137
1326945685219,2.32488
1326945745219,2.31105
1326945805219,2.30932
1326945865219,2.33554
1326945925219,2.31166
1326945985219,2.34065
1326946045219,2.32879
1326946105219,2.33634
1326946165219,2.34318
1326946225219,2.35040
1326946285219,2.32182
1326946345219,2.33690
1326946405219,2.32823
1326946465219,2.32102
1326946525219,2.34130
1326946585219,2.33673
1326946645219,2.34235
1326946705219,2.33489
1326946765219,2.34779
1326946825219,2.34978
1326946885219,2.33871
1326946945219,2.35547
1326947005219,2.33105
1326947065219,2.33444
1326947125219,2.34749
1326947185219,2.35501
1326947245219,2.35016
1326947305219,2.35078
1326947365219,2.35261
1326947425219,2.33338
1326947485219,2.33651
1326947545219,2.33664
1326947605219,2.31082
1326947665219,2.34759
1326947725219,2.35725
1326947785219,2.35110
1326947845219,2.34100
1326947905219,2.35153
1326947965219,2.35221
1326948025219,2.33586
1326948085219,2.35718
1326948145219,2.33634
1326948205219,2.33538
1326948265219,2.34911
1326948325219,2.33312
1326948385219,2.33665
1326948445219,2.33200
1326948505219,2.33976
1326948565219,2.33134
1326948625219,2.34993
1326948685219,2.34062
1326948745219,2.33803
1326948805219,2.35025
1326948865219,2.33371
1326948925219,2.33365
1326948985219,2.33603
1326949045219,2.33419
1326949105219,2.33919
1326949165219,2.32439
1326949225230,2.32742
1326949285230,2.32207
1326949345230,2.33804
1326949405230,2.32676
1326949465229,2.34198
1326949525229,2.33990
1326949585229,2.33125
1326949645229,2.32482
1326949705229,2.33184
1326949765229,2.32078
1326949825229,2.34441
1326949885229,2.35525
1326949945229,2.32583
1326950005229,2.33690
1326950065229,2.33209
1326950125229,2.32268
1326950185229,2.34008
1326950245229,2.30647
1326950305229,2.32352
1326950365229,2.31621
1326950425229,2.33222
1326950485229,2.31386
1326950545230,2.30309
1326950605230,2.29248
1326950665230,2.32613
1326950725230,2.33297
1326950785229,2.32733
1326950845229,2.32706
1326950905229,2.32953
1326950965229,2.33029
1326951025229,2.32869
1326951085229,2.32585
1326951145229,2.32494
1326951205229,2.32318
1326951265229,2.31096
1326951325229,2.32374
1326951385229,2.31836
1326951445229,2.30949
1326951505229,2.33434
1326951565229,2.33058
1326951625229,2.30292
1326951685229,2.30620
1326951745229,2.30408
1326951805229,2.31519
1326951865230,2.31615
1326951925230,2.32459
1326951985230,2.32354
1326952045230,2.31323
1326952105230,2.30425
1326952165229,2.32423
1326952225229,2.33198
1326952285229,2.32009
1326952345229,2.31049
1326952405229,2.33183
1326952465229,2.31402
1326952525229,2.32062
1326952585229,2.32887
1326952645229,2.34073
1326952705229,2.32637
1326952765229,2.31052
1326952825240,2.33573
1326952885240,2.31065
1326952945240,2.33782
1326953005240,2.32613
1326953065240,2.34006
1326953125240,2.30369
1326953185240,2.32636
1326953245240,2.31638
1326953305240,2.32441
1326953365240,2.31380
1326953425240,2.31372
1326953485240,2.33818
1326953545240,2.30001
1326953605240,2.32906
1326953665240,2.33509
1326953725240,2.31502
1326953785240,2.32299
1326953845240,2.31524
1326953905240,2.35984
1326953965240,2.31875
1326954025240,2.30989
1326954085240,2.32497
1326954145240,2.32476
1326954205240,2.32879
1326954265240,2.31877
1326954325240,2.31772
1326954385240,2.32268
1326954445240,2.31006
1326954505240,2.33848
1326954565240,2.32918
1326954625240,2.32729
1326954685240,2.32815
1326954745240,2.32493
1326954805240,2.30723
1326954865240,2.32573
1326954925240,2.32774
1326954985240,2.32772
1326955045240,2.32934
1326955105240,2.32536
1326955165240,2.33888
1326955225240,2.32944
1326955285240,2.32433
1326955345240,2.33487
1326955405240,2.30690
1326955465240,2.33520
1326955525240,2.32080
1326955585240,2.33865
1326955645240,2.30512
1326955705240,2.33242
1326955765240,2.33632
1326955825240,2.33176
1326955885240,2.32924
1326955945240,2.31477
1326956005240,2.32992
1326956065240,2.35676
1326956125240,2.33972
1326956185240,2.33318
1326956245240,2.32472
1326956305240,2.32977
1326956365240,2.32564
1326956425252,2.32112
1326956485252,2.33379
1326956545252,2.31349
1326956605252,2.33158
1326956665252,2.33333
1326956725252,2.33869
1326956785252,2.31471
1326956845252,2.33021
1326956905252,2.33778
1326956965252,2.32305
1326957025252,2.33561
1326957085252,2.33745
1326957145252,2.33099
1326957205252,2.15257
1326957265252,2.32651
1326957325252,2.34196
1326957385252,2.31732
1326957445252,2.31875
1326957505252,2.33088
1326957565252,2.32901
1326957625252,2.31899
1326957685252,2.32019
1326957745252,2.34102
1326957805252,2.33659
1326957865252,2.33755
1326957925252,2.32715
1326957985252,2.32041
1326958045252,2.34270
1326958105252,2.33204
1326958165252,2.34566
1326958225252,2.34836
1326958285252,2.33713
1326958345252,2.33601
1326958405252,2.32150
1326958465252,2.33312
1326958525252,2.32060
1326958585252,2.30438
1326958645252,2.32424
1326958705252,2.33149
1326958765252,2.32969
1326958825252,2.34662
1326958885252,2.35386
1326958945252,2.31270
1326959005252,2.33015
1326959065252,2.31613
1326959125252,2.43195
1326959185252,2.35580
1326959245252,2.32982
1326959305252,2.33596
1326959365252,2.32619
1326959425252,2.31195
1326959485252,2.33459
1326959545252,2.31860
1326959605252,2.32810
1326959665252,2.33827
1326959725252,2.32969
1326959785252,2.32907
1326959845252,2.34720
1326959905252,2.34015
1326959965252,2.34281
1326960025263,2.35682
1326960085263,2.33579
1326960145263,2.33628
1326960205263,2.33166
1326960265263,2.34333
1326960325263,2.32509
1326960385263,2.34731
1326960445263,2.34620
1326960505263,2.34860
1326960565263,2.32855
1326960625263,2.35317
1326960685263,2.33495
1326960745263,2.36752
1326960805263,2.35041
1326960865263,2.34664
1326960925263,2.34509
1326960985263,2.34336
1326961045263,2.34675
1326961105263,2.36820
1326961165263,2.34094
1326961225263,2.35091
1326961285263,2.34928
1326961345263,2.35825
1326961405263,2.38950
1326961465263,2.37117
1326961525263,2.35604
1326961585263,2.35554
1326961645263,2.37171
1326961705263,2.36697
1326961765263,2.38116
1326961825263,2.36882
1326961885263,2.35430
1326961945263,2.37300
1326962005263,2.36183
1326962065263,2.35723
1326962125263,2.38524
1326962185263,2.36939
1326962245263,2.37029
1326962305263,2.37420
1326962365263,2.37363
1326962425263,2.37325
1326962485263,2.37691
1326962545263,2.39017
1326962605263,2.38112
1326962665263,2.38276
1326962725263,2.38101
1326962785263,2.38627
1326962845263,2.37695
1326962905263,2.38459
1326962965263,2.37357
1326963025263,2.38026
1326963085263,2.37583
1326963145263,2.37411
1326963205263,2.37294
1326963265263,2.36874
1326963325263,2.41279
1326963385263,2.38596
1326963445263,2.37556
1326963505263,2.36272
1326963565263,2.39577
1326963625274,2.37170
1326963685274,2.37765
1326963745274,2.38969
1326963805274,2.39355
1326963865274,2.36576
1326963925274,2.37875
1326963985274,2.36012
1326964045274,2.37333
1326964105274,2.38023
1326964165274,2.38416
1326964225274,2.37535
1326964285274,2.38576
1326964345274,2.39305
1326964405274,2.37094
1326964465274,2.35077
1326964525274,2.37446
1326964585274,2.35111
1326964645274,2.36527
1326964705274,2.35844
1326964765274,2.38173
1326964825274,2.38735
1326964885274,2.37407
1326964945274,2.37837
1326965005274,2.37926
1326965065274,2.38279
1326965125274,2.36453
1326965185274,2.38213
1326965245274,2.37205
1326965305274,2.36616
1326965365274,2.35251
1326965425274,2.35864
1326965485274,2.35610
1326965545274,2.35912
1326965605274,2.37768
1326965665274,2.36034
1326965725274,2.35132
1326965785274,2.35008
1326965845274,2.35889
1326965905274,2.34819
1326965965274,2.35209
1326966025274,2.36667
1326966085274,2.37804
1326966145274,2.34664
1326966205274,2.41552
1326966265274,2.36738
1326966325274,2.35221
1326966385274,2.35294
1326966445274,2.36593
1326966505274,2.37715
1326966565274,2.36626
1326966625274,2.38243
1326966685274,2.38816
1326966745274,2.36121
1326966805274,2.36830
1326966865274,2.38499
1326966925274,2.38894
1326966985274,2.36077
1326967045274,2.35882
1326967105274,2.38054
1326967165274,2.38818
1326967225286,2.35327
1326967285286,2.37922
1326967345286,2.35226
1326967405286,2.35470
1326967465286,2.37018
1326967525286,2.38631
1326967585286,2.39242
1326967645286,2.37718
1326967705286,2.37049
1326967765286,2.38339
1326967825286,2.37933
1326967885286,2.39897
1326967945286,2.37043
1326968005286,2.35453
1326968065286,2.36619
1326968125286,2.35822
1326968185286,2.36262
1326968245286,2.36241
1326968305286,2.37940
1326968365286,2.38019
1326968425286,2.37049
1326968485286,2.35866
1326968545286,2.38321
1326968605286,2.35963
1326968665286,2.36893
1326968725286,2.36268
1326968785286,2.35623
1326968845286,2.36984
1326968905286,2.36890
1326968965286,2.36162
1326969025286,2.37867
1326969085286,2.35297
1326969145286,2.38171
1326969205286,2.37756
1326969265286,2.38708
1326969325286,2.37225
1326969385286,2.36362
1326969445286,2.36268
1326969505286,2.36718
1326969565286,2.38087
1326969625286,2.37802
1326969685286,2.37834
1326969745286,2.36508
1326969805286,2.36935
1326969865286,2.37811
1326969925286,2.37360
1326969985286,2.34664
1326970045286,2.36551
1326970105286,2.37314
1326970165286,2.35898
1326970225286,2.33508
1326970285286,2.36016
1326970345286,2.35249
1326970405286,2.36414
1326970465286,2.36104
1326970525286,2.36162
1326970585286,2.38960
1326970645286,2.35856
1326970705286,2.33997
1326970765286,2.34746
1326970825298,2.36026
1326970885298,2.36332
1326970945298,2.36001
1326971005298,2.35688
1326971065298,2.36770
1326971125298,2.37118
1326971185298,2.35465
1326971245298,2.35927
1326971305298,2.35212
1326971365298,2.35992
1326971425298,2.36671
1326971485298,2.36879
1326971545298,2.37208
1326971605298,2.35935
1326971665298,2.34160
1326971725298,2.39732
1326971785298,2.35604
1326971845298,2.37301
1326971905298,2.35953
1326971965298,2.35956
1326972025298,2.35843
1326972085298,2.35332
1326972145298,2.37662
1326972205298,2.35667
1326972265298,2.37326
1326972325298,2.35476
1326972385298,2.34476
1326972445298,2.33944
1326972505298,2.35842
1326972565298,2.35372
1326972625298,2.35552
1326972685298,2.34239
1326972745298,2.35761
1326972805298,2.34189
1326972865298,2.35267
1326972925298,2.35232
1326972985298,2.35438
1326973045298,2.36286
1326973105298,2.36516
1326973165298,2.35263
1326973225298,2.34972
1326973285298,2.33995
1326973345298,2.32605
1326973405298,2.36473
1326973465298,2.36132
1326973525298,2.35862
1326973585298,2.36741
1326973645298,2.34621
1326973705298,2.33981
1326973765298,2.33525
1326973825298,2.33777
1326973885298,2.33667
1326973945298,2.35909
1326974005298,2.33249
1326974065298,2.34418
1326974125298,2.34083
1326974185298,2.35887
1326974245298,2.32459
1326974305298,2.32696
1326974365298,2.34859
1326974425309,2.33430
1326974485309,2.35801
1326974545309,2.33352
1326974605309,2.32929
1326974665309,2.35093
1326974725309,2.34239
1326974785309,2.36435
1326974845309,2.34405
1326974905309,2.34527
1326974965309,2.36591
1326975025309,2.34241
1326975085309,2.34334
1326975145309,2.33322
1326975205309,2.33247
1326975265309,2.32947
1326975325309,2.35528
1326975385309,2.35406
1326975445309,2.33281
1326975505309,2.33628
1326975565309,2.34429
1326975625309,2.36445
1326975685309,2.35793
1326975745309,2.34720
1326975805309,2.33994
1326975865309,2.34318
1326975925309,2.35012
1326975985309,2.35286
1326976045309,2.32050
1326976105309,2.34062
1326976165309,2.32805
1326976225309,2.33188
1326976285309,2.33984
1326976345309,2.34303
1326976405309,2.34864
1326976465309,2.33597
1326976525309,2.35319
1326976585309,2.35082
1326976645309,2.35037
1326976705309,2.36712
1326976765309,2.36242
1326976825309,2.34287
1326976885309,2.36439
1326976945309,2.33798
1326977005309,2.35877
1326977065309,2.36591
1326977125309,2.36124
1326977185309,2.37752
1326977245309,2.38943
1326977305309,2.40359
1326977365309,2.39038
1326977425309,2.39355
1326977485309,2.42899
1326977545309,2.43800
1326977605309,2.43007
1326977665309,2.51470
1326977725309,2.45573
1326977785309,2.44070
1326977845309,2.41830
1326977905309,2.42849
1326977965309,2.43371
1326978025321,2.42154
1326978085321,2.42007
1326978145321,2.41646
1326978205321,2.41473
1326978265321,2.41867
1326978325321,2.40605
1326978385321,2.42360
1326978445321,2.39350
1326978505321,2.39860
1326978565321,2.40222
1326978625321,2.41266
1326978685321,2.39206
1326978745321,2.38157
1326978805321,2.39820
1326978865321,2.38444
1326978925321,2.38229
1326978985321,2.39023
1326979045321,2.37977
1326979105321,2.39183
1326979165321,2.38376
1326979225321,2.37829
1326979285321,2.39233
1326979345321,2.38124
1326979405321,2.35790
1326979465321,2.38283
1326979525321,2.36931
1326979585321,2.37340
1326979645321,2.38852
1326979705321,2.38007
1326979765321,2.36296
1326979825321,2.37138
1326979885321,2.36447
1326979945321,2.37482
1326980005321,2.35928
1326980065321,2.37190
1326980125321,2.36720
1326980185321,2.36150
1326980245321,2.38770
1326980305321,2.38022
1326980365321,2.38166
1326980425321,2.37035
1326980485321,2.36539
1326980545321,2.36793
1326980605321,2.34830
1326980665321,2.35765
1326980725321,2.37111
1326980785321,2.37031
1326980845321,2.36358
1326980905321,2.35341
1326980965321,2.34251
1326981025321,2.34729
1326981085321,2.35589
1326981145321,2.35983
1326981205321,2.36003
1326981265321,2.34181
1326981325321,2.36185
1326981385321,2.33996
1326981445321,2.36029
1326981505321,2.37259
1326981565321,2.35884
1326981625332,2.36563
1326981685332,2.34708
1326981745332,2.34993
1326981805332,2.35595
1326981865332,2.35925
1326981925332,2.35696
1326981985332,2.32379
1326982045332,2.34739
1326982105332,2.38350
1326982165332,2.35697
1326982225332,2.37015
1326982285332,2.37255
1326982345332,2.38111
1326982405332,2.37007
1326982465332,2.37128
1326982525332,2.36418
1326982585332,2.38223
1326982645332,2.35324
1326982705332,2.38083
1326982765332,2.37824
1326982825332,2.36026
1326982885332,2.37379
1326982945332,2.37268
1326983005332,2.37785
1326983065332,2.37487
1326983125332,2.35837
1326983185332,2.40251
1326983245332,2.37403
1326983305332,2.37985
1326983365332,2.37355
1326983425332,2.38981
1326983485332,2.38395
1326983545332,2.38968
1326983605332,2.38141
1326983665332,2.40593
1326983725332,2.38729
1326983785332,2.39800
1326983845332,2.40640
1326983905332,2.40148
1326983965332,2.40024
1326984025332,2.44203
1326984085332,2.39642
1326984145332,2.43100
1326984205332,2.42024
1326984265332,2.42710
1326984325332,2.43747
1326984385332,2.42820
1326984445332,2.43842
1326984505332,2.44279
1326984565332,2.43714
1326984625332,2.43551
1326984685332,2.42139
1326984745332,2.43215
1326984805332,2.44724
1326984865332,2.44216
1326984925332,2.42423
1326984985332,2.45579
1326985045332,2.45890
1326985105332,2.44721
1326985165332,2.46411
1326985225344,2.45522
1326985285344,2.45116
1326985345344,2.45407
1326985405344,2.45290
1326985465344,2.46123
1326985525344,2.49496
1326985585344,2.48109
1326985645344,2.48006
1326985705344,2.50728
1326985765344,2.50287
1326985825344,2.48856
1326985885344,2.51756
1326985945344,2.51386
1326986005344,2.56051
1326986065344,2.53902
1326986125344,2.53904
1326986185344,2.54785
1326986245344,2.53143
1326986305344,2.57829
1326986365344,2.54276
1326986425344,2.56754
1326986485344,2.57152
1326986545344,2.55950
1326986605344,2.57404
1326986665344,2.57446
1326986725344,2.59905
1326986785344,2.59934
1326986845344,2.60262
1326986905344,2.60614
1326986965344,2.62143
1326987025344,2.62304
1326987085344,2.61719
1326987145344,2.63399
1326987205344,2.65145
1326987265344,2.64803
1326987325344,2.64876
1326987385344,2.66784
1326987445344,2.66297
1326987505344,2.67971
1326987565344,2.67021
1326987625344,2.65629
1326987685344,2.67802
1326987745344,2.67590
1326987805344,2.68650
1326987865344,2.66069
1326987925344,2.68948
1326987985344,2.68299
1326988045344,2.69937
1326988105344,2.70279
1326988165344,2.70417
1326988225344,2.71582
1326988285344,2.62716
1326988345344,2.71557
1326988405344,2.71277
1326988465344,2.72770
1326988525344,2.72926
1326988585344,2.72022
1326988645344,2.70783
1326988705344,2.72839
1326988765344,2.74415
1326988825355,2.75035
1326988885355,2.74735
1326988945355,2.75655
1326989005355,2.77527
1326989065355,2.76901
1326989125355,2.76730
1326989185355,2.78227
1326989245355,2.79504
1326989305355,2.80610
1326989365355,2.78896
1326989425355,2.81106
1326989485355,2.81989
1326989545355,2.81829
1326989605355,2.81225
1326989665355,2.81923
1326989725355,2.80238
1326989785355,2.81265
1326989845355,2.80715
1326989905355,2.88343
1326989965355,2.82921
1326990025355,2.79444
1326990085355,2.79167
1326990145355,2.80617
1326990205355,2.79171
1326990265355,2.77534
1326990325355,2.77964
1326990385355,2.77628
1326990445355,2.78108
1326990505355,2.78492
1326990565355,2.76125
1326990625355,2.76867
1326990685355,2.75736
1326990745355,2.76366
1326990805355,2.77615
1326990865355,2.76638
1326990925355,2.77203
1326990985355,2.77892
1326991045355,2.75424
1326991105355,2.75772
1326991165355,2.76320
1326991225355,2.76626
1326991285355,2.75984
1326991345355,2.75341
1326991405355,2.77828
1326991465355,2.79345
1326991525355,2.77723
1326991585355,2.81095
1326991645355,2.80933
1326991705355,2.80592
1326991765355,2.80349
1326991825355,2.79064
1326991885355,2.78893
1326991945355,2.79865
1326992005355,2.81355
1326992065355,2.78550
1326992125355,2.79481
1326992185355,2.79751
1326992245355,2.78580
1326992305355,2.80824
1326992365355,2.78707
1326992425367,2.78069
1326992485367,2.77908
1326992545367,2.80337
1326992605367,2.76693
1326992665367,2.80025
1326992725367,2.79349
1326992785367,2.80177
1326992845367,2.78090
1326992905367,2.78353
1326992965367,2.77590
1326993025367,2.80580
1326993085367,2.77691
1326993145367,2.76265
1326993205367,2.75195
1326993265367,2.75272
1326993325367,2.74559
1326993385367,2.76032
1326993445367,2.74038
1326993505367,2.72176
1326993565367,2.76077
1326993625367,2.75029
1326993685367,2.75112
1326993745367,2.72755
1326993805367,2.71504
1326993865367,2.73737
1326993925367,2.73363
1326993985367,2.70771
1326994045367,2.72614
1326994105367,2.71794
1326994165367,2.72860
1326994225367,2.73735
1326994285367,2.73164
1326994345367,2.74154
1326994405367,2.72856
1326994465367,2.71467
1326994525367,2.71669
1326994585367,2.71866
1326994645367,2.71662
1326994705367,2.71954
1326994765367,2.70041
1326994825367,2.69935
1326994885367,2.71138
1326994945367,2.70697
1326995005367,2.69073
1326995065367,2.69985
1326995125367,2.68733
1326995185367,2.71124
1326995245367,2.69277
1326995305367,2.68660
1326995365367,2.69415
1326995425367,2.69975
1326995485367,2.68448
1326995545367,2.68918
1326995605367,2.67999
1326995665367,2.69211
1326995725367,2.67711
1326995785367,2.68719
1326995845367,2.69168
1326995905367,2.70532
1326995965367,2.67209
1326996025378,2.68352
1326996085378,2.67783
1326996145378,2.68295
1326996205378,2.67545
1326996265378,2.67788
1326996325378,2.65632
1326996385378,2.66735
1326996445378,2.67215
1326996505378,2.65907
1326996565378,2.68184